When you browse on this site, cookies collect data to enhance your experience and personalize the content and advertising you see.
Visit our Privacy Policy to learn more. By continuing to use the site, you agree to this use of cookies and data.

Stündliche Wetter Zasluchne

Heute, 20 September, Sonntag

Zeit Temperatur Niederschläge Wind Luftdruck Luftfeuchtigkeit
00:00 +11°C° 0 mm 1 m/S 740 mmHg 69%
01:00 +10°C° 0 mm 1 m/S 740 mmHg 69%
02:00 +9°C° 0 mm 1 m/S 740 mmHg 69%
03:00 +9°C° 0 mm 1 m/S 740 mmHg 70%
04:00 +9°C° 0 mm 1 m/S 740 mmHg 70%
05:00 +8°C° 0 mm 1 m/S 739 mmHg 71%
06:00 +9°C° 0 mm 1 m/S 740 mmHg 67%
07:00 +11°C° 0 mm 1 m/S 740 mmHg 63%
08:00 +12°C° 0 mm 1 m/S 740 mmHg 60%
09:00 +14°C° 0 mm 1 m/S 740 mmHg 57%
10:00 +15°C° 0 mm 1 m/S 740 mmHg 53%
11:00 +17°C° 0 mm 2 m/S 741 mmHg 50%
12:00 +18°C° 0 mm 2 m/S 740 mmHg 49%
13:00 +19°C° 0 mm 2 m/S 740 mmHg 49%
14:00 +20°C° 0 mm 2 m/S 740 mmHg 48%
15:00 +19°C° 0 mm 2 m/S 740 mmHg 51%
16:00 +19°C° 0 mm 2 m/S 739 mmHg 54%
17:00 +19°C° 0 mm 2 m/S 739 mmHg 57%
18:00 +17°C° 0 mm 2 m/S 739 mmHg 61%
19:00 +16°C° 0 mm 2 m/S 739 mmHg 64%
20:00 +14°C° 0 mm 2 m/S 739 mmHg 67%
21:00 +14°C° 0 mm 2 m/S 740 mmHg 68%
22:00 +13°C° 0 mm 2 m/S 740 mmHg 68%
23:00 +12°C° 0 mm 3 m/S 740 mmHg 69%

Morgen, 21 September, Montag

Zeit Temperatur Niederschläge Wind Luftdruck Luftfeuchtigkeit
00:00 +11°C° 0 mm 3 m/S 740 mmHg 69%
01:00 +11°C° 0 mm 3 m/S 740 mmHg 69%
02:00 +11°C° 0 mm 3 m/S 740 mmHg 69%
03:00 +10°C° 0 mm 3 m/S 739 mmHg 68%
04:00 +10°C° 0 mm 3 m/S 739 mmHg 67%
05:00 +10°C° 0 mm 3 m/S 739 mmHg 65%
06:00 +11°C° 0 mm 3 m/S 739 mmHg 62%
07:00 +12°C° 0 mm 3 m/S 739 mmHg 59%
08:00 +13°C° 0 mm 3 m/S 740 mmHg 56%
09:00 +16°C° 0 mm 3 m/S 740 mmHg 51%
10:00 +18°C° 0 mm 3 m/S 740 mmHg 45%
11:00 +20°C° 0 mm 3 m/S 740 mmHg 40%
12:00 +21°C° 0 mm 3 m/S 740 mmHg 38%
13:00 +22°C° 0 mm 3 m/S 739 mmHg 37%
14:00 +24°C° 0 mm 3 m/S 739 mmHg 35%
15:00 +22°C° 0 mm 3 m/S 739 mmHg 39%
16:00 +23°C° 0 mm 2 m/S 739 mmHg 42%
17:00 +21°C° 0 mm 2 m/S 738 mmHg 46%
18:00 +19°C° 0 mm 2 m/S 738 mmHg 48%
19:00 +17°C° 0 mm 2 m/S 738 mmHg 50%
20:00 +16°C° 0 mm 2 m/S 739 mmHg 53%
21:00 +14°C° 0 mm 3 m/S 738 mmHg 52%
22:00 +14°C° 0 mm 3 m/S 738 mmHg 52%
23:00 +13°C° 0 mm 3 m/S 738 mmHg 51%

übermorgen, 22 September, Dienstag

Zeit Temperatur Niederschläge Wind Luftdruck Luftfeuchtigkeit
00:00 +13°C° 0 mm 3 m/S 738 mmHg 51%
01:00 +13°C° 0 mm 3 m/S 738 mmHg 51%
02:00 +12°C° 0 mm 3 m/S 738 mmHg 51%
03:00 +12°C° 0 mm 3 m/S 738 mmHg 52%
04:00 +12°C° 0 mm 3 m/S 738 mmHg 52%
05:00 +11°C° 0 mm 3 m/S 738 mmHg 53%
06:00 +12°C° 0 mm 4 m/S 738 mmHg 54%
07:00 +14°C° 0 mm 4 m/S 738 mmHg 54%
08:00 +15°C° 0 mm 4 m/S 738 mmHg 55%
09:00 +17°C° 0 mm 5 m/S 738 mmHg 51%
10:00 +20°C° 0 mm 5 m/S 738 mmHg 47%
11:00 +23°C° 0 mm 6 m/S 739 mmHg 43%
12:00 +23°C° 0 mm 6 m/S 738 mmHg 40%
13:00 +24°C° 0 mm 6 m/S 738 mmHg 37%
14:00 +25°C° 0 mm 5 m/S 738 mmHg 34%
15:00 +25°C° 0 mm 5 m/S 737 mmHg 36%
16:00 +23°C° 0 mm 4 m/S 737 mmHg 38%
17:00 +22°C° 0 mm 3 m/S 736 mmHg 41%
18:00 +20°C° 0 mm 3 m/S 736 mmHg 42%
19:00 +18°C° 0 mm 3 m/S 736 mmHg 43%
20:00 +16°C° 0 mm 3 m/S 736 mmHg 44%
21:00 +16°C° 0 mm 3 m/S 736 mmHg 43%
22:00 +14°C° 0 mm 3 m/S 736 mmHg 42%
23:00 +13°C° 0 mm 4 m/S 735 mmHg 41%

23 September, Mittwoch

Zeit Temperatur Niederschläge Wind Luftdruck Luftfeuchtigkeit
00:00 +13°C° 0 mm 4 m/S 735 mmHg 41%
01:00 +13°C° 0 mm 4 m/S 735 mmHg 42%
02:00 +13°C° 0 mm 4 m/S 735 mmHg 42%
03:00 +13°C° 0 mm 4 m/S 735 mmHg 48%
04:00 +12°C° 0 mm 4 m/S 735 mmHg 54%
05:00 +12°C° 0 mm 4 m/S 734 mmHg 59%
06:00 +12°C° 0 mm 5 m/S 734 mmHg 56%
07:00 +13°C° 0 mm 5 m/S 734 mmHg 53%
08:00 +14°C° 0 mm 5 m/S 734 mmHg 50%
09:00 +16°C° 0 mm 6 m/S 734 mmHg 48%
10:00 +17°C° 0 mm 6 m/S 734 mmHg 46%
11:00 +20°C° 0 mm 6 m/S 734 mmHg 44%
12:00 +21°C° 0 mm 6 m/S 734 mmHg 41%
13:00 +22°C° 0 mm 6 m/S 734 mmHg 38%
14:00 +23°C° 0 mm 5 m/S 733 mmHg 36%
15:00 +22°C° 0 mm 5 m/S 733 mmHg 38%
16:00 +22°C° 0 mm 4 m/S 733 mmHg 40%
17:00 +21°C° 0 mm 3 m/S 732 mmHg 42%
18:00 +19°C° 0 mm 3 m/S 732 mmHg 44%
19:00 +18°C° 0 mm 3 m/S 732 mmHg 46%
20:00 +16°C° 0 mm 3 m/S 732 mmHg 47%
21:00 +14°C° 0 mm 3 m/S 732 mmHg 47%
22:00 +14°C° 0 mm 3 m/S 732 mmHg 47%
23:00 +14°C° 0 mm 3 m/S 732 mmHg 46%

24 September, Donnerstag

Zeit Temperatur Niederschläge Wind Luftdruck Luftfeuchtigkeit
00:00 +13°C° 0 mm 3 m/S 732 mmHg 47%
01:00 +13°C° 0 mm 3 m/S 732 mmHg 48%
02:00 +13°C° 0 mm 3 m/S 732 mmHg 49%
03:00 +12°C° 0 mm 3 m/S 732 mmHg 51%
04:00 +12°C° 0 mm 3 m/S 732 mmHg 53%
05:00 +12°C° 0 mm 3 m/S 732 mmHg 54%
06:00 +13°C° 0 mm 3 m/S 732 mmHg 55%
07:00 +14°C° 0 mm 3 m/S 732 mmHg 55%
08:00 +15°C° 0 mm 4 m/S 732 mmHg 55%
09:00 +18°C° 0 mm 4 m/S 733 mmHg 52%
10:00 +21°C° 0 mm 4 m/S 733 mmHg 49%
11:00 +23°C° 0 mm 4 m/S 733 mmHg 46%
12:00 +25°C° 0 mm 4 m/S 733 mmHg 43%
13:00 +26°C° 0 mm 3 m/S 733 mmHg 40%
14:00 +27°C° 0 mm 3 m/S 733 mmHg 37%
15:00 +27°C° 0 mm 2 m/S 733 mmHg 40%
16:00 +26°C° 0 mm 2 m/S 732 mmHg 43%
17:00 +25°C° 0 mm 1 m/S 732 mmHg 47%
18:00 +24°C° 0 mm 1 m/S 732 mmHg 49%
19:00 +21°C° 0 mm 2 m/S 732 mmHg 52%
20:00 +19°C° 0 mm 2 m/S 732 mmHg 54%
21:00 +19°C° 0 mm 2 m/S 733 mmHg 55%
22:00 +18°C° 0 mm 2 m/S 733 mmHg 56%
23:00 +18°C° 0 mm 2 m/S 733 mmHg 57%

25 September, Freitag

Zeit Temperatur Niederschläge Wind Luftdruck Luftfeuchtigkeit
00:00 +17°C° 0 mm 2 m/S 733 mmHg 58%
01:00 +17°C° 0 mm 2 m/S 732 mmHg 59%
02:00 +17°C° 0 mm 2 m/S 732 mmHg 60%
03:00 +16°C° 0 mm 2 m/S 732 mmHg 60%
04:00 +16°C° 0 mm 2 m/S 732 mmHg 61%
05:00 +16°C° 0 mm 2 m/S 732 mmHg 62%
06:00 +16°C° 0 mm 3 m/S 731 mmHg 60%
07:00 +17°C° 0 mm 3 m/S 731 mmHg 59%
08:00 +18°C° 0 mm 3 m/S 731 mmHg 57%
09:00 +20°C° 0 mm 4 m/S 731 mmHg 53%
10:00 +22°C° 0 mm 5 m/S 731 mmHg 48%
11:00 +25°C° 0 mm 5 m/S 731 mmHg 44%
12:00 +26°C° 0 mm 6 m/S 730 mmHg 42%
13:00 +27°C° 0 mm 6 m/S 730 mmHg 40%
14:00 +28°C° 0 mm 6 m/S 729 mmHg 38%
15:00 +27°C° 0 mm 5 m/S 729 mmHg 40%
16:00 +27°C° 0 mm 5 m/S 728 mmHg 43%
17:00 +26°C° 0 mm 4 m/S 727 mmHg 46%
18:00 +25°C° 0 mm 4 m/S 727 mmHg 46%
19:00 +23°C° 0 mm 5 m/S 727 mmHg 47%
20:00 +22°C° 0 mm 5 m/S 726 mmHg 47%
21:00 +21°C° 0.1 mm 6 m/S 726 mmHg 48%
22:00 +21°C° 0.1 mm 6 m/S 726 mmHg 50%
23:00 +20°C° 0.1 mm 6 m/S 725 mmHg 51%
Mehr zeigen